Regional Weather Roundup
Issued by NWS Jackson, KY

Home | Current Version | Previous Version | Text Only | Print | Product List | Glossary On
Versions: 1 2 3 4 5 6 7 8 9 10 11 12 13 14 15 16 17 18 19 20 21 22 23 24 25 26 27
000
ASUS43 KJKL 292310
RWRJKL

EAST KENTUCKY HOURLY WEATHER ROUNDUP
NATIONAL WEATHER SERVICE JACKSON KY
700 PM EDT SUN MAY 29 2016

NOTE: "FAIR" INDICATES FEW OR NO CLOUDS BELOW 12,000 FEET WITH
NO SIGNIFICANT WEATHER AND/OR OBSTRUCTIONS TO VISIBILITY.

* THESE REPORTS ARE NOT UNDER NWS QUALITY CONTROL AND MAY NOT
  REPORT WEATHER SUCH AS PRECIPITATION AND FOG.

KYZ079-080-083-085-087-088-110-112-115-119-120-300000
...EASTERN KENTUCKY...

CITY           SKY/WX    TMP DP  RH WIND       PRES   REMARKS
JACKSON        SUNNY     79  65  62 SE3       30.07F
LONDON         PTSUNNY   84  62  47 W3        30.06S
SOMERSET*      SUNNY     79  63  57 CALM      30.06S
MONTICELLO*    MOSUNNY   83  67  58 VRB6      30.07S
WILLIAMSBURG*  CLEAR     82  63  51 CALM      30.06S
MIDDLESBORO*   CLOUDY    76  63  63 CALM      30.08F
HARLAN APT*    CLOUDY    73  63  68 CALM      30.10S
HAZARD APT*    CLEAR     81  66  61 CALM      30.07F
BLACK MTN*       N/A     66  61  82 CALM        N/A
PIKE CO APT*     N/A     73  69  87 CALM      30.09S
BIG SANDY APT* PTCLDY    78  64  62 CALM      30.08F
MOREHEAD APT*  CLOUDY    82  64  54 SW5       30.06F
ASHLAND*       CLOUDY    84  66  54 SW6       30.00F
$$

KYZ035-036-041-042-044-050-067-078-099-300000
...CENTRAL KENTUCKY...

CITY           SKY/WX    TMP DP  RH WIND       PRES   REMARKS
MT STERLING*   MOSUNNY   82  68  61 CALM      30.05F
FLEMING/MASON* MOSUNNY  N/A N/A N/A S7        30.04F
RICHMOND*      SUNNY     82  64  54 CALM      30.04F
LEXINGTON      SUNNY     84  65  52 SW7       30.04S
FRANKFORT      SUNNY     84  64  50 SW8       30.02R
LOUISVILLE     PTSUNNY   84  63  49 W10       30.01R
LEBANON*         N/A     84  66  54 SW3       30.04S
GLASGOW*       SUNNY     83  65  54 W3        30.04S
BOWLING GREEN  CLOUDY    87  65  47 W10       30.03S
$$

KYZ091>093-OHZ055-061-077-WVZ005-015-034-035-042-300000
...SOUTHERN OHIO/WEST VIRGINIA...

CITY           SKY/WX    TMP DP  RH WIND       PRES   REMARKS
COVINGTON      MOSUNNY   83  65  54 SW10      30.01S
COLUMBUS       PTSUNNY   81  61  50 S8        29.99S THUNDER
DAYTON         CLOUDY    75  64  68 SE8       30.00S
WILMINGTON     MOSUNNY   81  67  62 SW9       30.01S
HUNTINGTON       N/A     81  68  64 S5        30.04F
CHARLESTON     PTSUNNY   77  67  71 N3        30.06F
PINEVILLE*       N/A     73  64  73 MISG      30.15S
BECKLEY          N/A     71  61  70 NE6       30.14S
BLUEFIELD      CLOUDY    67  58  72 E3        30.16S
LOGAN CO APT*    N/A     75  61  60 CALM      30.09S
$$

VAZ002-007-008-TNZ017-027-036-066-071-300000
...SOUTHWEST VIRGINIA/EAST TENNESSEE...

CITY           SKY/WX    TMP DP  RH WIND       PRES   REMARKS
WISE*            N/A     73  55  53 CALM      30.15F
JONESVILLE*      N/A     75  66  73 CALM      30.11S
ABINGDON*        N/A     73  55  53 SE5       30.12S
BRISTOL        PTSUNNY   75  60  59 E3        30.08F
SEVIERVILLE*   CLEAR     79  63  57 VRB3      30.04S
KNOXVILLE      CLOUDY    74  66  76 E8        30.04S
OAK RIDGE      SUNNY     84  62  47 E6        30.05S
CROSSVILLE     MOSUNNY   80  61  52 NW7       30.10S
NASHVILLE      MOSUNNY   87  63  44 SW6       30.03F
$$

...KEY TO REMARKS...
VSB - VISIBILITY IN MILES
WCI - WIND CHILL INDEX
HX  - HEAT INDEX

$$




USA.gov is the U.S. government's official web portal to all federal, state and local government web resources and services.